Location: Hermaringen
(48.5952°N, 10.2585°E)
Time: 14:39:46
(UTC+00:00)

Courier 1B Rocket - Pass Details

Date: 24 February 2026
Orbit: 920 x 1201 km, 28.2° (Epoch: 13 March)

Event Time Altitude Azimuth Distance (km) Brightness Sun altitude
Rises 17:23:57 0° 226° (SW) 3,573 8.9 -5.6°
Reaches altitude 10° 17:29:16 10° 189° (S) 2,604 7.5 -6.5°
Maximum altitude 17:30:25 11° 178° (S) 2,565 7.3 -6.7°
Drops below altitude 10° 17:31:33 10° 167° (SSE) 2,601 7.2 -6.8°
Sets 17:36:51 0° 130° (SE) 3,557 7.5 -7.7°
